Tracking 31027 objects as of 19-Jul-2025
HD Live streaming from Space Station
objects crossing your sky now

STARLINK-4000

Track STARLINK-4000 now!
10-day predictions
STARLINK-4000 is classified as:


NORAD ID: 52605
Int'l Code: 2022-052H
Perigee: 546.2 km
Apogee: 547.6 km
Inclination: 53.2 °
Period: 95.4 minutes
Semi major axis: 6917 km
RCS: Unknown
Launch date: May 14, 2022
Source: United States (US)
Launch site: AIR FORCE EASTERN TEST RANGE (AFETR)
Your satellite tracking list
THORAD DELTA 1 DEB
Track 1 satellite(s)




NASA's NSSDC Master Catalog

Two Line Element Set (TLE):
1 52605U 22052H   25199.84170587  .00000039  00000-0  20534-4 0  9995
2 52605  53.2166 253.6838 0001003  89.0383 271.0724 15.08835440175850
Source of the keplerian elements: AFSPC